Naples, FL

2:53 AM EDT on June 27, 2017 (GMT -0400)
Naples Municipal

Weather History for KAPF - April, 2014

Change the Weather History Date:

Sunday, April 20, 2014

  Actual Average Record
Temperature  
Mean Temperature 72 °F 74 °F  
Max Temperature 77 °F 84 °F 91 °F (1976)
Min Temperature 66 °F 64 °F 48 °F (1997)
Degree Days  
Heating Degree Days 0 0  
Month to date heating degree days 0 0  
Since 1 July heating degree days 149 256  
Cooling Degree Days 7 9  
Month to date cooling degree days 196 154  
Year to date cooling degree days 627 521  
Growing Degree Days 20 (Base 50)    
Moisture  
Dew Point 61 °F    
Average Humidity 72    
Maximum Humidity 84    
Minimum Humidity 60    
Precipitation  
Precipitation 0.00 in 0.09 in 0.71 in (1945)
Month to date precipitation 1.73 1.68  
Year to date precipitation 6.79 8.01  
Snow  
Snow 0.00 in - - ()
Month to date snowfall 0.0  
Since 1 July snowfall 0.0  
Snow Depth 0.00 in    
Sea Level Pressure  
Sea Level Pressure 30.02 in    
Wind  
Wind Speed 8 mph (NW)    
Max Wind Speed 16 mph    
Max Gust Speed 22 mph    
Visibility 10 miles    
Events      
T = Trace of Precipitation, MM = Missing Value Source: NWS Daily Summary

Daily Weather History Graph

Daily Weather History Graph

Search for Another Location

Airport or City:

Trip Planner

Search our weather history database for the weather conditions in past years. The results will help you decide how hot, cold, wet, or windy it might be!

Date:

Astronomy

Apr. 20, 2014 Rise Set
Actual Time 6:59 AM EDT 7:53 PM EDT
Civil Twilight 6:35 AM EDT 8:17 PM EDT
Nautical Twilight 6:07 AM EDT 8:45 PM EDT
Astronomical Twilight 5:38 AM EDT 9:13 PM EDT
Moon 12:20 AM EDT (4/20) 11:29 AM EDT (4/20)
Length of Visible Light 13h 41m
Length of Day
12h 54m
Waning Gibbous, 69% of the Moon is Illuminated
Apr 20
Waning Gibbous
Apr 22
Last Quarter
Apr 29
New
May 6
First Quarter
May 14
Full

Hourly Weather History & Observations

Time (EDT) Temp. Dew Point Humidity Pressure Visibility Wind Dir Wind Speed Gust Speed Precip Events Conditions
12:53 AM 70.0 °F 59.0 °F 68% 30.01 in 10.0 mi WNW 12.7 mph - N/A   Overcast
1:53 AM 70.0 °F 57.9 °F 65% 30.00 in 10.0 mi WNW 15.0 mph - N/A   Overcast
2:53 AM 69.1 °F 59.0 °F 70% 29.99 in 10.0 mi WNW 9.2 mph - N/A   Overcast
3:22 AM 69.1 °F 57.9 °F 68% 29.98 in 10.0 mi WNW 10.4 mph - N/A   Overcast
3:53 AM 69.1 °F 57.9 °F 68% 29.98 in 10.0 mi NW 11.5 mph 17.3 mph N/A   Overcast
4:53 AM 68.0 °F 59.0 °F 73% 29.97 in 10.0 mi Calm Calm - N/A   Overcast
5:53 AM 66.0 °F 60.1 °F 81% 29.99 in 10.0 mi North 6.9 mph - N/A   Mostly Cloudy
6:53 AM 66.0 °F 61.0 °F 84% 30.00 in 10.0 mi North 3.5 mph - N/A   Mostly Cloudy
8:53 AM 69.1 °F 61.0 °F 75% 30.03 in 10.0 mi North 6.9 mph - N/A   Mostly Cloudy
9:53 AM 69.1 °F 61.0 °F 75% 30.04 in 10.0 mi North 4.6 mph - N/A   Overcast
10:53 AM 71.1 °F 62.1 °F 73% 30.05 in 10.0 mi NE 6.9 mph - N/A   Overcast
11:11 AM 73.0 °F 61.0 °F 66% 30.06 in 10.0 mi Variable 4.6 mph - N/A   Overcast
11:53 AM 72.0 °F 59.0 °F 64% 30.06 in 10.0 mi NW 6.9 mph - N/A   Overcast
12:02 PM 72.0 °F 60.1 °F 66% 30.05 in 10.0 mi North 5.8 mph - N/A   Mostly Cloudy
12:53 PM 73.0 °F 59.0 °F 61% 30.05 in 10.0 mi WNW 8.1 mph - N/A   Overcast
1:53 PM 73.9 °F 59.0 °F 59% 30.04 in 10.0 mi NW 10.4 mph - N/A   Overcast
2:53 PM 73.9 °F 60.1 °F 62% 30.03 in 10.0 mi WNW 11.5 mph 18.4 mph N/A   Mostly Cloudy
3:53 PM 75.0 °F 60.1 °F 60% 30.01 in 10.0 mi NW 12.7 mph - N/A   Scattered Clouds
4:53 PM 75.9 °F 61.0 °F 60% 30.01 in 10.0 mi WNW 15.0 mph - N/A   Scattered Clouds
5:53 PM 75.0 °F 63.0 °F 66% 30.00 in 10.0 mi NW 11.5 mph - N/A   Scattered Clouds
6:53 PM 73.9 °F 63.0 °F 68% 30.00 in 10.0 mi NW 11.5 mph - N/A   Clear
7:53 PM 73.0 °F 63.0 °F 71% 30.01 in 10.0 mi NW 5.8 mph - N/A   Overcast
8:53 PM 72.0 °F 63.0 °F 73% 30.02 in 10.0 mi NNW 8.1 mph - N/A   Overcast
9:53 PM 72.0 °F 64.0 °F 76% 30.04 in 10.0 mi NNW 8.1 mph - N/A   Mostly Cloudy
10:53 PM 70.0 °F 64.0 °F 81% 30.04 in 10.0 mi North 5.8 mph - N/A   Mostly Cloudy
11:53 PM 69.1 °F 63.0 °F 81% 30.05 in 10.0 mi NNE 4.6 mph - N/A   Clear